FDX9454 EBLG-EGNX

Flight info

Callsign FDX9454
Flight time N/A
Altitude 30000
Route BUB L608 DENUT L610 RAPIX DCT WELIN
Aircraft MD11/H-SDE1E2E3FGHIJ2J3J4J5M1RWXY/LB1D1

Departure

Time 2026-05-09 08:59
Airport Liège Airport (EBLG)

Arrival

Time N/A
Airport East Midlands Airport (EGNX)
Time Latitude Longitude Altitude Speed Heading
2026-05-09 08:38 50.64036 5.43717 630 ft 0 kts 314°
2026-05-09 08:50 50.64023 5.43738 641 ft 4 kts 310°
2026-05-09 08:50 50.64007 5.43772 643 ft 4 kts 296°
2026-05-09 08:50 50.63998 5.43810 639 ft 4 kts 280°
2026-05-09 08:50 50.63995 5.43848 633 ft 1 kts 270°
2026-05-09 08:51 50.63995 5.43849 633 ft 0 kts 270°
2026-05-09 08:53 50.63995 5.43847 630 ft 1 kts 268°
2026-05-09 08:53 50.63986 5.43815 643 ft 7 kts 239°
2026-05-09 08:53 50.63941 5.43714 640 ft 13 kts 228°
2026-05-09 08:54 50.63888 5.43627 640 ft 10 kts 225°
2026-05-09 08:54 50.63827 5.43553 641 ft 12 kts 213°
2026-05-09 08:54 50.63742 5.43486 641 ft 15 kts 201°
2026-05-09 08:54 50.63638 5.43486 644 ft 13 kts 150°
2026-05-09 08:55 50.63576 5.43577 648 ft 11 kts 132°
2026-05-09 08:55 50.63579 5.43716 646 ft 19 kts 58°
2026-05-09 08:55 50.63693 5.43909 637 ft 26 kts 45°
2026-05-09 08:55 50.63819 5.44107 637 ft 25 kts 45°
2026-05-09 08:56 50.63936 5.44292 637 ft 23 kts 45°
2026-05-09 08:56 50.64048 5.44469 632 ft 24 kts 45°
2026-05-09 08:56 50.64178 5.44676 629 ft 29 kts 45°
2026-05-09 08:56 50.64328 5.44913 617 ft 30 kts 45°
2026-05-09 08:57 50.64457 5.45119 613 ft 25 kts 45°
2026-05-09 08:57 50.64562 5.45289 603 ft 14 kts 46°
2026-05-09 08:57 50.64589 5.45409 601 ft 10 kts 65°
2026-05-09 08:57 50.64618 5.45422 601 ft 2 kts 334°
2026-05-09 08:58 50.64619 5.45392 601 ft 5 kts 258°
2026-05-09 08:58 50.64596 5.45340 601 ft 0 kts 225°
2026-05-09 08:58 50.64438 5.45092 620 ft 79 kts 225°
2026-05-09 08:59 50.63832 5.44132 638 ft 163 kts 225°
2026-05-09 08:59 50.62920 5.42654 955 ft 199 kts 226°
2026-05-09 08:59 50.62037 5.41173 2255 ft 175 kts 226°
2026-05-09 08:59 50.61200 5.39726 3225 ft 179 kts 226°
2026-05-09 09:00 50.60367 5.38241 4002 ft 188 kts 227°
2026-05-09 09:00 50.59428 5.36601 4266 ft 214 kts 226°
2026-05-09 09:00 50.58469 5.34754 4837 ft 218 kts 242°
2026-05-09 09:00 50.58217 5.32371 5175 ft 242 kts 277°
2026-05-09 09:01 50.58893 5.29809 5428 ft 265 kts 305°
2026-05-09 09:01 50.60072 5.27536 6083 ft 270 kts 309°
2026-05-09 09:01 50.61255 5.25236 7088 ft 270 kts 305°
2026-05-09 09:01 50.62372 5.22823 8036 ft 276 kts 302°
2026-05-09 09:02 50.63460 5.20290 8947 ft 281 kts 302°
2026-05-09 09:02 50.64548 5.17693 9878 ft 286 kts 301°
2026-05-09 09:02 50.65641 5.14990 10412 ft 305 kts 300°
2026-05-09 09:02 50.66813 5.11989 10561 ft 337 kts 299°
2026-05-09 09:03 50.68079 5.08760 10872 ft 359 kts 301°
2026-05-09 09:03 50.69453 5.05380 11739 ft 364 kts 301°
2026-05-09 09:03 50.70834 5.02013 12598 ft 369 kts 301°
2026-05-09 09:03 50.72222 4.98622 13439 ft 374 kts 301°
2026-05-09 09:04 50.73640 4.95146 14204 ft 379 kts 301°
2026-05-09 09:04 50.75072 4.91620 14909 ft 384 kts 301°
2026-05-09 09:04 50.76521 4.88044 15602 ft 389 kts 301°
2026-05-09 09:04 50.77985 4.84420 16276 ft 394 kts 301°
2026-05-09 09:05 50.79463 4.80755 16992 ft 397 kts 301°
2026-05-09 09:05 50.80955 4.77048 17671 ft 402 kts 301°
2026-05-09 09:05 50.82463 4.73297 18299 ft 406 kts 301°
2026-05-09 09:05 50.83987 4.69499 18870 ft 410 kts 301°
2026-05-09 09:06 50.85522 4.65668 19426 ft 414 kts 301°
2026-05-09 09:06 50.87073 4.61794 19965 ft 418 kts 301°
2026-05-09 09:06 50.88633 4.57888 20505 ft 421 kts 301°
2026-05-09 09:06 50.90180 4.53985 21056 ft 424 kts 301°
2026-05-09 09:07 50.91729 4.49981 21623 ft 427 kts 300°
2026-05-09 09:07 50.93276 4.45935 22150 ft 431 kts 300°
2026-05-09 09:07 50.94832 4.41852 22742 ft 434 kts 300°
2026-05-09 09:07 50.96401 4.37737 23350 ft 437 kts 300°
2026-05-09 09:08 50.97984 4.33587 23865 ft 441 kts 301°
2026-05-09 09:08 50.99575 4.29416 24352 ft 445 kts 300°
2026-05-09 09:08 51.01186 4.25189 24851 ft 448 kts 300°
2026-05-09 09:08 51.02802 4.20947 25395 ft 451 kts 300°
2026-05-09 09:09 51.04409 4.16720 25940 ft 453 kts 300°
2026-05-09 09:09 51.06041 4.12420 26498 ft 455 kts 300°
2026-05-09 09:09 51.07683 4.08085 27006 ft 458 kts 300°
2026-05-09 09:09 51.09331 4.03729 27526 ft 462 kts 300°
2026-05-09 09:10 51.10990 3.99335 28029 ft 464 kts 300°
2026-05-09 09:10 51.12650 3.94935 28677 ft 463 kts 300°
2026-05-09 09:10 51.14310 3.90523 29111 ft 463 kts 300°
2026-05-09 09:10 51.15959 3.86135 29516 ft 461 kts 300°
2026-05-09 09:11 51.17605 3.81745 29928 ft 460 kts 299°
2026-05-09 09:11 51.19248 3.77358 30091 ft 461 kts 299°
2026-05-09 09:11 51.20910 3.72909 30113 ft 473 kts 299°
2026-05-09 09:12 51.23968 3.63552 30113 ft 476 kts 287°
2026-05-09 09:12 51.25548 3.53391 30116 ft 474 kts 279°
2026-05-09 09:13 51.26741 3.43029 30118 ft 474 kts 279°
2026-05-09 09:13 51.27988 3.32678 30131 ft 475 kts 279°
2026-05-09 09:14 51.29300 3.22329 30127 ft 475 kts 279°
2026-05-09 09:14 51.30625 3.11997 30126 ft 474 kts 279°
2026-05-09 09:15 51.31939 3.01687 30128 ft 473 kts 279°
2026-05-09 09:15 51.33235 2.91415 30127 ft 473 kts 279°
2026-05-09 09:16 51.34530 2.81078 30130 ft 474 kts 278°
2026-05-09 09:16 51.36434 2.65538 30124 ft 475 kts 278°
2026-05-09 09:17 51.37702 2.55144 30124 ft 475 kts 278°
2026-05-09 09:17 51.38972 2.44757 30125 ft 475 kts 278°